AD8AK Weather Reports


time (UTC)temp
C
wind
direction
speed
KPH
gust
KPH
rain 1hr
cm
rain 24hr
cm
rain mn
cm
humidity
%
barometer
mb
20260507113308 5 220 1.6 3.2 0.00 0.00 0.00 77 1013.9
20260507112805 5 260 0.0 1.6 0.00 0.00 0.00 77 1013.8
20260507112306 5 282 0.0 1.6 0.00 0.00 0.00 77 1013.8
20260507111800 5 278 0.0 0.0 0.00 0.00 0.00 78 1013.3
20260507111256 5 244 1.6 3.2 0.00 0.00 0.00 78 1013.7
20260507110752 5 235 0.0 3.2 0.00 0.00 0.00 78 1013.7
20260507110249 5 228 1.6 3.2 0.00 0.00 0.00 78 1013.6
20260507105746 5 255 0.0 0.0 0.00 0.00 0.00 79 1013.6
20260507105241 5 291 0.0 1.6 0.00 0.00 0.00 79 1013.6
20260507104739 4 296 0.0 1.6 0.00 0.00 0.00 79 1013.5
20260507104236 4 301 0.0 1.6 0.00 0.00 0.00 79 1013.5
20260507103732 4 285 0.0 0.0 0.00 0.00 0.00 79 1013.2
20260507103228 4 292 0.0 0.0 0.00 0.00 0.00 79 1013.5
20260507102725 5 295 0.0 0.0 0.00 0.00 0.00 78 1013.5
20260507102221 5 305 0.0 0.0 0.00 0.00 0.00 78 1013.3
20260507101717 5 304 0.0 1.6 0.00 0.00 0.00 78 1013.1
20260507101213 5 292 0.0 1.6 0.00 0.00 0.00 79 1013.2
20260507100710 5 293 0.0 0.0 0.00 0.00 0.00 79 1013.1
20260507100209 5 286 0.0 0.0 0.00 0.00 0.00 79 1013.2
20260507095706 5 286 0.0 1.6 0.00 0.00 0.00 79 1013.2
20260507095202 5 290 0.0 0.0 0.00 0.00 0.00 79 1013.1
20260507094659 5 287 0.0 0.0 0.00 0.00 0.00 80 1013.1
20260507094156 5 272 0.0 0.0 0.00 0.00 0.00 79 1013.1
20260507093653 5 265 0.0 0.0 0.00 0.00 0.00 79 1013.0
20260507093152 5 243 0.0 1.6 0.00 0.00 0.00 79 1013.1
20260507092648 5 234 0.0 0.0 0.00 0.00 0.00 80 1013.1
20260507092145 5 235 0.0 0.0 0.00 0.00 0.00 80 1013.0
20260507091641 5 234 0.0 0.0 0.00 0.00 0.00 80 1012.8
20260507091138 5 234 0.0 0.0 0.00 0.00 0.00 80 1013.0
20260507090633 5 234 0.0 0.0 0.00 0.00 0.00 80 1013.0
20260507090131 5 232 0.0 0.0 0.00 0.00 0.00 81 1013.0
20260507085628 5 244 0.0 1.6 0.00 0.00 0.00 82 1012.8
20260507085124 5 250 0.0 0.0 0.00 0.00 0.00 82 1012.9
20260507084621 5 258 0.0 0.0 0.00 0.00 0.00 83 1013.0
20260507084118 5 255 0.0 0.0 0.00 0.00 0.00 83 1012.9
20260507083615 5 264 0.0 0.0 0.00 0.00 0.00 84 1012.9
20260507083112 5 273 0.0 0.0 0.00 0.00 0.00 84 1012.8
20260507082607 5 294 0.0 0.0 0.00 0.00 0.00 85 1012.9
20260507082104 5 292 0.0 0.0 0.00 0.00 0.00 85 1012.9
20260507081600 5 301 0.0 0.0 0.00 0.00 0.00 86 1013.0
20260507081057 5 304 0.0 0.0 0.00 0.00 0.00 86 1012.9
20260507080553 5 295 0.0 0.0 0.00 0.00 0.00 86 1012.9
20260507080050 5 286 0.0 0.0 0.00 0.00 0.00 86 1012.6
20260507075545 5 286 0.0 0.0 0.00 0.00 0.00 86 1012.9
20260507075042 5 283 0.0 0.0 0.00 0.00 0.00 86 1012.9
20260507074538 5 283 0.0 0.0 0.00 0.00 0.00 87 1012.9
20260507074037 5 281 0.0 0.0 0.00 0.00 0.00 88 1012.9
20260507073533 5 280 0.0 0.0 0.00 0.00 0.00 89 1013.0
20260507073029 5 286 0.0 0.0 0.00 0.00 0.00 89 1013.0
20260507072527 4 298 0.0 0.0 0.00 0.00 0.00 89 1013.0
20260507072024 4 299 0.0 0.0 0.00 0.00 0.00 89 1013.0
20260507071521 4 299 0.0 0.0 0.00 0.00 0.00 89 1013.0
20260507071018 4 299 0.0 0.0 0.00 0.00 0.00 89 1012.9
20260507070515 4 299 0.0 0.0 0.00 0.00 0.00 89 1013.0
20260507070013 5 299 0.0 0.0 0.00 0.00 0.00 89 1013.1
20260507065508 5 299 0.0 0.0 0.00 0.00 0.00 88 1013.2
20260507065006 5 289 0.0 0.0 0.00 0.00 0.00 88 1013.0
20260507064504 5 284 0.0 0.0 0.00 0.00 0.00 88 1013.1
20260507064001 5 295 0.0 0.0 0.00 0.00 0.00 89 1013.1
20260507063458 5 299 0.0 0.0 0.00 0.00 0.00 88 1013.0
20260507062955 5 299 0.0 0.0 0.00 0.00 0.00 88 1013.1
20260507062452 5 299 0.0 0.0 0.00 0.00 0.00 88 1013.2
20260507061950 5 299 0.0 0.0 0.00 0.00 0.00 87 1013.5
20260507061447 5 299 0.0 0.0 0.00 0.00 0.00 87 1013.5
20260507060946 5 299 0.0 0.0 0.00 0.00 0.00 87 1013.3
20260507060442 5 299 0.0 0.0 0.00 0.00 0.00 86 1013.2
20260507055939 5 299 0.0 0.0 0.00 0.00 0.00 86 1013.2
20260507055434 5 299 0.0 0.0 0.00 0.00 0.00 86 1013.3
20260507054931 5 299 0.0 0.0 0.00 0.00 0.00 86 1013.1
20260507054427 5 299 0.0 0.0 0.00 0.00 0.00 86 1013.3
20260507053925 5 299 0.0 0.0 0.00 0.00 0.00 86 1013.5
20260507053422 5 299 0.0 0.0 0.00 0.00 0.00 85 1013.5
20260507052921 5 296 0.0 0.0 0.00 0.00 0.00 85 1013.3
20260507052418 5 296 0.0 0.0 0.00 0.00 0.00 85 1013.5
20260507051914 5 296 0.0 0.0 0.00 0.00 0.00 85 1013.3
20260507051412 5 293 0.0 0.0 0.00 0.00 0.00 85 1013.7
20260507050910 5 293 0.0 0.0 0.00 0.00 0.00 84 1013.6
20260507050406 5 291 0.0 0.0 0.00 0.00 0.00 84 1013.7
20260507045903 5 291 0.0 0.0 0.00 0.00 0.00 84 1013.7
20260507045359 5 290 0.0 0.0 0.00 0.00 0.00 83 1013.6
20260507044856 5 290 0.0 0.0 0.00 0.00 0.00 82 1013.7
20260507044353 5 290 0.0 0.0 0.00 0.00 0.00 82 1013.6
20260507043848 5 288 0.0 0.0 0.00 0.00 0.00 81 1013.6
20260507043345 5 288 0.0 0.0 0.00 0.00 0.00 81 1013.6
20260507042842 5 288 0.0 0.0 0.00 0.00 0.00 81 1013.5
20260507042337 5 288 0.0 0.0 0.00 0.00 0.00 80 1013.7
20260507041834 6 288 0.0 0.0 0.00 0.00 0.00 78 1013.5
20260507041331 6 288 0.0 0.0 0.00 0.00 0.00 77 1013.7
20260507040828 6 288 0.0 0.0 0.00 0.00 0.00 76 1013.7
20260507040324 6 288 0.0 0.0 0.00 0.00 0.00 75 1013.6
20260507035820 6 288 0.0 0.0 0.00 0.51 0.51 74 1013.7
20260507035316 7 288 0.0 0.0 0.00 0.51 0.51 74 1013.7
20260507034814 7 288 0.0 0.0 0.00 0.51 0.51 72 1013.8
20260507034310 7 286 0.0 0.0 0.00 0.51 0.51 71 1013.6
20260507033809 7 286 0.0 0.0 0.00 0.51 0.51 70 1013.7
20260507033306 7 286 0.0 0.0 0.00 0.51 0.51 69 1013.9
20260507032803 8 286 0.0 0.0 0.00 0.51 0.51 68 1014.0
20260507032259 8 286 0.0 0.0 0.00 0.51 0.51 67 1013.8
20260507031755 8 285 0.0 0.0 0.00 0.51 0.51 67 1014.0
20260507031252 8 262 0.0 0.0 0.00 0.51 0.51 67 1014.0
20260507030749 8 325 0.0 0.0 0.00 0.51 0.51 68 1014.0
20260507030247 8 325 0.0 0.0 0.00 0.51 0.51 66 1014.0
20260507025744 8 264 0.0 0.0 0.00 0.51 0.51 66 1014.2
20260507025241 8 263 0.0 0.0 0.00 0.51 0.51 65 1014.0
20260507024739 9 263 0.0 0.0 0.00 0.51 0.51 65 1014.0
20260507024236 9 263 0.0 0.0 0.00 0.51 0.51 64 1014.0
20260507023731 9 256 0.0 0.0 0.00 0.51 0.51 64 1014.0
20260507023229 10 257 0.0 0.0 0.00 0.51 0.51 63 1014.0
20260507022726 10 235 0.0 0.0 0.00 0.51 0.51 62 1014.1
20260507022221 10 234 0.0 1.6 0.00 0.51 0.51 62 1014.0
20260507021718 10 232 0.0 0.0 0.00 0.51 0.51 62 1013.8
20260507021213 10 231 0.0 0.0 0.00 0.51 0.51 62 1013.9
20260507020712 10 260 0.0 1.6 0.00 0.51 0.51 60 1013.9
20260507020208 10 224 1.6 3.2 0.00 0.51 0.51 59 1013.9
20260507015706 10 247 0.0 0.0 0.00 0.51 0.51 60 1014.0
20260507015203 10 280 0.0 0.0 0.00 0.51 0.51 62 1014.0
20260507014659 10 247 0.0 0.0 0.00 0.51 0.51 61 1013.7
20260507014155 10 232 0.0 0.0 0.00 0.51 0.51 62 1013.6
20260507013653 10 242 0.0 0.0 0.00 0.51 0.51 60 1013.6
20260507013150 10 234 0.0 0.0 0.00 0.51 0.51 60 1013.7
20260507012648 10 241 0.0 0.0 0.00 0.51 0.51 59 1013.1
20260507012142 10 226 0.0 1.6 0.00 0.51 0.51 58 1013.2
20260507011641 10 228 1.6 1.6 0.00 0.51 0.51 57 1013.2
20260507011137 10 224 1.6 1.6 0.00 0.51 0.51 57 1013.2
20260507010631 10 257 0.0 1.6 0.00 0.51 0.51 57 1013.3
20260507010128 10 288 0.0 1.6 0.00 0.51 0.51 57 1013.2
20260507005625 10 229 1.6 1.6 0.00 0.51 0.51 57 1013.2
20260507005121 10 237 1.6 1.6 0.00 0.51 0.51 56 1013.2
20260507004618 10 279 0.0 0.0 0.00 0.51 0.51 56 1013.1
20260507004116 10 265 0.0 1.6 0.00 0.51 0.51 55 1013.0
20260507003612 10 255 1.6 1.6 0.00 0.51 0.51 54 1013.0
20260507003107 11 287 1.6 1.6 0.00 0.51 0.51 53 1013.1
20260507002604 11 257 0.0 0.0 0.00 0.51 0.51 53 1013.1
20260507002059 11 270 0.0 0.0 0.00 0.51 0.51 52 1013.2
20260507001556 11 256 1.6 1.6 0.00 0.51 0.51 51 1013.1
20260507001054 11 286 0.0 1.6 0.00 0.51 0.51 52 1013.2
20260507000550 11 306 0.0 1.6 0.00 0.51 0.51 53 1013.0
20260507000045 11 285 0.0 0.0 0.00 0.51 0.51 52 1013.0
20260506235543 11 265 0.0 0.0 0.00 0.51 0.51 52 1013.0
20260506235038 11 275 3.2 3.2 0.00 0.51 0.51 50 1013.2
20260506234536 11 246 0.0 0.0 0.00 0.51 0.51 50 1012.9
20260506234033 11 266 0.0 3.2 0.00 0.51 0.51 49 1013.1
20260506233530 11 294 3.2 3.2 0.00 0.51 0.51 48 1012.9
20260506233027 11 281 1.6 3.2 0.00 0.51 0.51 48 1013.1
20260506232523 11 261 1.6 4.8 0.00 0.51 0.51 47 1013.1
20260506232019 11 251 1.6 1.6 0.00 0.51 0.51 47 1013.2
20260506231516 11 260 1.6 3.2 0.00 0.51 0.51 47 1013.5
20260506231014 11 333 1.6 3.2 0.00 0.51 0.51 47 1013.2
20260506230510 11 286 0.0 1.6 0.00 0.51 0.51 49 1013.3
20260506230008 11 285 1.6 4.8 0.00 0.51 0.51 46 1013.3
20260506225504 11 338 3.2 4.8 0.00 0.51 0.51 47 1013.3
20260506225000 11 311 1.6 3.2 0.00 0.51 0.51 47 1013.5
20260506224457 11 313 0.0 1.6 0.00 0.51 0.51 47 1013.5
20260506223954 11 283 1.6 4.8 0.00 0.51 0.51 46 1013.1
20260506223450 11 310 0.0 0.0 0.00 0.51 0.51 50 1013.2
20260506222947 11 350 1.6 4.8 0.00 0.51 0.51 46 1013.3
20260506222444 11 322 1.6 3.2 0.00 0.51 0.51 46 1013.2
20260506221940 11 310 0.0 1.6 0.00 0.51 0.51 46 1013.5
20260506221437 11 342 1.6 3.2 0.00 0.51 0.51 46 1013.1
20260506220936 11 351 1.6 3.2 0.00 0.51 0.51 49 1013.2
20260506220431 11 335 0.0 1.6 0.00 0.51 0.51 48 1013.2
20260506215927 11 1 0.0 3.2 0.00 0.51 0.51 46 1013.3
20260506215424 11 338 3.2 11.3 0.00 0.51 0.51 45 1013.0
20260506214920 11 287 0.0 1.6 0.00 0.51 0.51 49 1013.2
20260506214417 11 314 0.0 4.8 0.00 0.51 0.51 47 1013.1
20260506213914 11 316 4.8 6.4 0.00 0.51 0.51 46 1013.0
20260506213412 11 337 4.8 6.4 0.00 0.51 0.51 46 1013.2
20260506212909 11 332 3.2 6.4 0.00 0.51 0.51 45 1012.8
20260506212405 11 323 4.8 6.4 0.00 0.51 0.51 44 1012.8
20260506211859 11 316 0.0 4.8 0.00 0.51 0.51 47 1012.8
20260506211356 11 337 1.6 3.2 0.00 0.51 0.51 46 1012.7
20260506210853 11 293 3.2 6.4 0.00 0.51 0.51 44 1012.9
20260506210350 11 349 3.2 4.8 0.00 0.51 0.51 46 1012.8
20260506205847 11 267 1.6 6.4 0.00 0.51 0.51 45 1013.0
20260506205343 11 343 3.2 6.4 0.00 0.51 0.51 45 1012.6
20260506204840 12 336 4.8 9.7 0.00 0.51 0.51 45 1012.9
20260506204337 12 345 4.8 12.9 0.00 0.51 0.51 45 1012.7
20260506203835 12 330 3.2 9.7 0.00 0.51 0.51 45 1012.9
20260506203332 12 334 3.2 4.8 0.00 0.51 0.51 47 1012.6
20260506202829 12 346 0.0 4.8 0.00 0.51 0.51 47 1012.6
20260506202326 12 351 4.8 6.4 0.00 0.51 0.51 46 1012.7
20260506201822 12 303 1.6 6.4 0.00 0.51 0.51 44 1012.9
20260506201320 12 315 3.2 6.4 0.00 0.51 0.51 45 1012.6
20260506200816 12 357 3.2 9.7 0.00 0.51 0.51 45 1012.6
20260506200312 12 329 1.6 6.4 0.00 0.51 0.51 45 1012.9
20260506195809 12 331 1.6 4.8 0.00 0.51 0.51 45 1012.6
20260506195306 12 319 1.6 4.8 0.00 0.51 0.51 44 1012.6
20260506194803 12 313 3.2 6.4 0.00 0.51 0.51 43 1012.5
20260506194259 13 345 3.2 6.4 0.00 0.51 0.51 45 1012.7
20260506193757 13 291 3.2 6.4 0.00 0.51 0.51 43 1012.6
20260506193254 13 272 6.4 11.3 0.00 0.51 0.51 42 1012.5
20260506192750 13 287 1.6 4.8 0.00 0.51 0.51 44 1012.6
20260506192247 13 295 6.4 9.7 0.00 0.51 0.51 43 1012.7
20260506191744 13 273 3.2 9.7 0.00 0.51 0.51 43 1012.5
20260506191240 13 328 4.8 6.4 0.00 0.51 0.51 44 1012.5
20260506190737 13 276 4.8 4.8 0.00 0.51 0.51 47 1012.5
20260506190234 13 319 1.6 6.4 0.00 0.51 0.51 46 1012.6
20260506185731 13 349 1.6 4.8 0.00 0.51 0.51 45 1012.7
20260506185227 13 317 1.6 6.4 0.00 0.51 0.51 43 1012.6
20260506184725 13 309 3.2 4.8 0.00 0.51 0.51 45 1012.6
20260506184222 13 336 1.6 4.8 0.00 0.51 0.51 44 1012.7
20260506183719 13 314 4.8 11.3 0.00 0.51 0.51 46 1012.8
20260506183214 13 285 1.6 4.8 0.00 0.51 0.51 45 1012.5
20260506182712 13 328 3.2 4.8 0.00 0.51 0.51 44 1012.4
20260506182209 13 327 3.2 3.2 0.00 0.51 0.51 44 1012.4
20260506181707 12 243 1.6 4.8 0.00 0.51 0.51 46 1012.6
20260506181204 12 5 3.2 4.8 0.00 0.51 0.51 44 1012.6
20260506180701 12 312 4.8 9.7 0.00 0.51 0.51 45 1012.6
20260506180157 12 345 6.4 9.7 0.00 0.51 0.51 44 1012.4
20260506175653 13 356 1.6 4.8 0.00 0.51 0.51 47 1012.5
20260506175151 13 348 3.2 4.8 0.00 0.51 0.51 48 1012.5
20260506174649 13 307 1.6 6.4 0.00 0.51 0.51 43 1012.6
20260506174145 13 337 1.6 4.8 0.00 0.51 0.51 45 1012.7
20260506173643 13 347 1.6 3.2 0.00 0.51 0.51 46 1012.8
20260506173140 13 332 4.8 4.8 0.00 0.51 0.51 48 1012.7
20260506172637 12 358 1.6 4.8 0.00 0.51 0.51 50 1012.3
20260506172133 12 295 1.6 4.8 0.00 0.51 0.51 50 1012.6
20260506171631 12 333 3.2 6.4 0.00 0.51 0.51 47 1012.9
20260506171128 13 25 1.6 4.8 0.00 0.51 0.51 47 1012.7
20260506170626 12 335 4.8 9.7 0.00 0.51 0.51 49 1012.8
20260506170122 12 278 1.6 9.7 0.00 0.51 0.51 50 1012.8
20260506165621 13 355 4.8 11.3 0.00 0.51 0.51 46 1013.0
20260506165117 12 357 1.6 12.9 0.00 0.51 0.51 48 1012.9
20260506164614 12 341 3.2 4.8 0.00 0.51 0.51 48 1012.8
20260506164112 12 327 4.8 4.8 0.00 0.51 0.51 46 1012.8
20260506163607 12 329 1.6 1.6 0.00 0.51 0.51 48 1012.9
20260506163103 12 76 3.2 4.8 0.00 0.51 0.51 50 1013.1
20260506162559 12 6 4.8 11.3 0.00 0.51 0.51 46 1012.9
20260506162051 12 325 3.2 16.1 0.00 0.51 0.51 47 1012.7
20260506161549 12 305 3.2 9.7 0.00 0.51 0.51 47 1012.6
20260506161046 12 347 3.2 4.8 0.00 0.51 0.51 50 1012.8
20260506160543 12 316 4.8 9.7 0.00 0.51 0.51 47 1012.7
20260506160040 12 305 1.6 9.7 0.00 0.51 0.51 48 1012.7
20260506155538 11 32 1.6 4.8 0.00 0.51 0.51 47 1012.8
20260506153715 11 315 3.2 6.4 0.00 0.51 0.51 51 1012.6
20260506153212 12 344 4.8 6.4 0.00 0.51 0.51 53 1012.7
20260506152709 12 325 3.2 3.2 0.00 0.51 0.51 52 1012.1
20260506152207 11 94 1.6 3.2 0.00 0.51 0.51 54 1012.2
20260506151706 11 2 3.2 6.4 0.00 0.51 0.51 55 1012.2
20260506151201 11 348 3.2 3.2 0.00 0.51 0.51 58 1012.2
20260506150658 11 290 1.6 3.2 0.00 0.51 0.51 57 1012.1
20260506150155 11 320 1.6 3.2 0.00 0.51 0.51 57 1012.4
20260506145652 11 324 1.6 3.2 0.00 0.51 0.51 57 1012.2
20260506145149 11 131 1.6 6.4 0.00 0.51 0.51 60 1012.2
20260506144647 11 348 1.6 4.8 0.00 0.51 0.51 62 1012.2
20260506144143 11 344 4.8 11.3 0.00 0.51 0.51 59 1012.1
20260506143641 11 329 6.4 6.4 0.00 0.51 0.51 61 1011.9
20260506143139 11 292 1.6 6.4 0.00 0.51 0.51 62 1012.0
20260506142637 10 242 3.2 6.4 0.00 0.51 0.51 63 1011.7
20260506142135 10 317 1.6 1.6 0.00 0.51 0.51 68 1011.8
20260506141632 10 338 4.8 6.4 0.00 0.51 0.51 68 1011.8
20260506141130 10 330 3.2 3.2 0.00 0.51 0.51 69 1011.5
20260506140627 10 286 3.2 4.8 0.00 0.51 0.51 70 1011.4
20260506140125 10 312 4.8 9.7 0.00 0.51 0.51 69 1011.3
20260506135621 10 32 3.2 4.8 0.00 0.51 0.51 73 1011.4
20260506135118 10 319 1.6 1.6 0.00 0.51 0.51 74 1011.6
20260506134614 9 327 0.0 3.2 0.00 0.51 0.51 75 1011.3
20260506134110 9 330 1.6 3.2 0.00 0.51 0.51 74 1011.7
20260506133608 9 317 1.6 9.7 0.00 0.51 0.51 75 1011.7
20260506133104 9 325 3.2 4.8 0.00 0.51 0.51 78 1011.8
20260506132602 9 322 6.4 6.4 0.00 0.51 0.51 77 1011.7
20260506132058 9 327 1.6 3.2 0.00 0.51 0.51 80 1011.6
20260506131556 8 317 0.0 4.8 0.00 0.51 0.51 80 1011.6
20260506131052 8 203 0.0 4.8 0.00 0.51 0.51 84 1011.5
20260506130549 8 314 0.0 4.8 0.00 0.51 0.51 84 1011.1
20260506130047 8 333 6.4 9.7 0.00 0.51 0.51 86 1011.2
20260506125545 8 351 3.2 4.8 0.00 0.51 0.51 86 1011.1
20260506125042 8 336 1.6 1.6 0.00 0.51 0.51 87 1011.0
20260506124540 7 331 3.2 3.2 0.00 0.51 0.51 88 1010.9
20260506124037 7 336 1.6 1.6 0.00 0.51 0.51 89 1010.9
20260506123535 7 358 1.6 3.2 0.00 0.51 0.51 90 1010.8
20260506123033 7 314 1.6 1.6 0.00 0.51 0.51 91 1011.2
20260506122529 7 294 0.0 1.6 0.00 0.51 0.51 91 1010.8
20260506122028 7 277 1.6 1.6 0.00 0.51 0.51 92 1010.7
20260506121525 7 293 1.6 4.8 0.00 0.51 0.51 92 1010.7
20260506121021 7 286 1.6 4.8 0.00 0.51 0.51 93 1011.0
20260506120519 6 315 3.2 4.8 0.00 0.51 0.51 94 1011.0
20260506120016 6 322 1.6 3.2 0.00 0.51 0.51 94 1010.6
20260506115514 6 322 1.6 1.6 0.00 0.51 0.51 94 1010.3
20260506115012 6 324 0.0 0.0 0.00 0.51 0.51 95 1010.2
20260506114509 6 354 0.0 1.6 0.00 0.51 0.51 95 1010.2
20260506114008 6 329 1.6 1.6 0.00 0.51 0.51 95 1010.2